Year,Month,Day,Hour,Minute,Value (Times are PST for temperature in C)
2017,01,09,00,00,1.70
2017,01,09,00,01,1.60
2017,01,09,00,02,1.60
2017,01,09,00,03,1.60
2017,01,09,00,04,1.60
2017,01,09,00,05,1.60
2017,01,09,00,06,1.60
2017,01,09,00,07,1.60
2017,01,09,00,08,1.70
2017,01,09,00,09,1.70
2017,01,09,00,10,1.70
2017,01,09,00,11,1.70
2017,01,09,00,12,1.70
2017,01,09,00,13,1.70
2017,01,09,00,14,1.70
2017,01,09,00,15,1.70
2017,01,09,00,16,1.70
2017,01,09,00,17,1.70
2017,01,09,00,18,1.70
2017,01,09,00,19,1.70
2017,01,09,00,20,1.70
2017,01,09,00,21,1.70
2017,01,09,00,22,1.70
2017,01,09,00,23,1.70
2017,01,09,00,24,1.70
2017,01,09,00,25,1.70
2017,01,09,00,26,1.70
2017,01,09,00,27,1.70
2017,01,09,00,28,1.70
2017,01,09,00,29,1.70
2017,01,09,00,30,1.70
2017,01,09,00,31,1.70
2017,01,09,00,32,1.70
2017,01,09,00,33,1.70
2017,01,09,00,34,1.70
2017,01,09,00,35,1.70
2017,01,09,00,36,1.70
2017,01,09,00,37,1.70
2017,01,09,00,38,1.70
2017,01,09,00,39,1.70
2017,01,09,00,40,1.70
2017,01,09,00,41,1.70
2017,01,09,00,42,1.70
2017,01,09,00,43,1.70
2017,01,09,00,44,1.70
2017,01,09,00,45,1.70
2017,01,09,00,46,1.70
2017,01,09,00,47,1.70
2017,01,09,00,48,1.70
2017,01,09,00,49,1.70
2017,01,09,00,50,1.70
2017,01,09,00,51,1.70
2017,01,09,00,52,1.80
2017,01,09,00,53,1.80
2017,01,09,00,54,1.80
2017,01,09,00,55,1.80
2017,01,09,00,56,1.80
2017,01,09,00,57,1.80
2017,01,09,00,58,1.80
2017,01,09,00,59,1.80
2017,01,09,01,00,1.80
2017,01,09,01,01,1.80
2017,01,09,01,02,1.80
2017,01,09,01,03,1.80
2017,01,09,01,04,1.80
2017,01,09,01,05,1.80
2017,01,09,01,06,1.80
2017,01,09,01,07,1.80
2017,01,09,01,08,1.80
2017,01,09,01,09,1.80
2017,01,09,01,10,1.80
2017,01,09,01,11,1.80
2017,01,09,01,12,1.80
2017,01,09,01,13,1.80
2017,01,09,01,14,1.80
2017,01,09,01,15,1.80
2017,01,09,01,16,1.80
2017,01,09,01,17,1.80
2017,01,09,01,18,1.80
2017,01,09,01,19,1.80
2017,01,09,01,20,1.80
2017,01,09,01,21,1.80
2017,01,09,01,22,1.80
2017,01,09,01,23,1.80
2017,01,09,01,24,1.80
2017,01,09,01,25,1.80
2017,01,09,01,26,1.90
2017,01,09,01,27,1.80
2017,01,09,01,28,1.90
2017,01,09,01,29,1.90
2017,01,09,01,30,1.90
2017,01,09,01,31,1.90
2017,01,09,01,32,1.90
2017,01,09,01,33,1.80
2017,01,09,01,34,1.90
2017,01,09,01,35,1.90
2017,01,09,01,36,1.90
2017,01,09,01,37,1.90
2017,01,09,01,38,1.90
2017,01,09,01,39,1.90
2017,01,09,01,40,1.90
2017,01,09,01,41,1.90
2017,01,09,01,42,1.90
2017,01,09,01,43,1.90
2017,01,09,01,44,1.90
2017,01,09,01,45,1.90
2017,01,09,01,46,1.90
2017,01,09,01,47,1.90
2017,01,09,01,48,1.90
2017,01,09,01,49,1.90
2017,01,09,01,50,1.90
2017,01,09,01,51,1.90
2017,01,09,01,52,1.90
2017,01,09,01,53,1.90
2017,01,09,01,54,2.00
2017,01,09,01,55,2.00
2017,01,09,01,56,2.00
2017,01,09,01,57,2.00
2017,01,09,01,58,2.00
2017,01,09,01,59,2.00
2017,01,09,02,00,2.10
2017,01,09,02,01,2.10
2017,01,09,02,02,2.10
2017,01,09,02,03,2.10
2017,01,09,02,04,2.10
2017,01,09,02,05,2.10
2017,01,09,02,06,2.00
2017,01,09,02,07,2.00
2017,01,09,02,08,2.10
2017,01,09,02,09,2.00
2017,01,09,02,10,2.00
2017,01,09,02,11,2.10
2017,01,09,02,12,2.00
2017,01,09,02,13,2.00
2017,01,09,02,14,2.00
2017,01,09,02,15,2.00
2017,01,09,02,16,2.00
2017,01,09,02,17,2.00
2017,01,09,02,18,2.00
2017,01,09,02,19,2.00
2017,01,09,02,20,2.00
2017,01,09,02,21,2.00
2017,01,09,02,22,2.10
2017,01,09,02,23,2.10
2017,01,09,02,24,2.00
2017,01,09,02,25,2.00
2017,01,09,02,26,1.90
2017,01,09,02,27,1.90
2017,01,09,02,28,1.90
2017,01,09,02,29,1.80
2017,01,09,02,30,1.80
2017,01,09,02,31,1.80
2017,01,09,02,32,1.80
2017,01,09,02,33,1.80
2017,01,09,02,34,1.80
2017,01,09,02,35,1.80
2017,01,09,02,36,1.80
2017,01,09,02,37,1.80
2017,01,09,02,38,1.80
2017,01,09,02,39,1.80
2017,01,09,02,40,1.80
2017,01,09,02,41,1.80
2017,01,09,02,42,1.80
2017,01,09,02,43,1.80
2017,01,09,02,44,1.80
2017,01,09,02,45,1.80
2017,01,09,02,46,1.80
2017,01,09,02,47,1.80
2017,01,09,02,48,1.80
2017,01,09,02,49,1.80
2017,01,09,02,50,1.70
2017,01,09,02,51,1.70
2017,01,09,02,52,1.70
2017,01,09,02,53,1.70
2017,01,09,02,54,1.70
2017,01,09,02,55,1.70
2017,01,09,02,56,1.70
2017,01,09,02,57,1.70
2017,01,09,02,58,1.70
2017,01,09,02,59,1.60
2017,01,09,03,00,1.60
2017,01,09,03,01,1.60
2017,01,09,03,02,1.60
2017,01,09,03,03,1.60
2017,01,09,03,04,1.50
2017,01,09,03,05,1.50
2017,01,09,03,06,1.40
2017,01,09,03,07,1.30
2017,01,09,03,08,1.30
2017,01,09,03,09,1.30
2017,01,09,03,10,1.30
2017,01,09,03,11,1.30
2017,01,09,03,12,1.30
2017,01,09,03,13,1.30
2017,01,09,03,14,1.30
2017,01,09,03,15,1.30
2017,01,09,03,16,1.30
2017,01,09,03,17,1.30
2017,01,09,03,18,1.30
2017,01,09,03,19,1.30
2017,01,09,03,20,1.30
2017,01,09,03,21,1.30
2017,01,09,03,22,1.40
2017,01,09,03,23,1.40
2017,01,09,03,24,1.40
2017,01,09,03,25,1.30
2017,01,09,03,26,1.30
2017,01,09,03,27,1.30
2017,01,09,03,28,1.40
2017,01,09,03,29,1.50
2017,01,09,03,30,1.50
2017,01,09,03,31,1.60
2017,01,09,03,32,1.70
2017,01,09,03,33,1.70
2017,01,09,03,34,1.70
2017,01,09,03,35,1.80
2017,01,09,03,36,1.80
2017,01,09,03,37,1.80
2017,01,09,03,38,1.80
2017,01,09,03,39,1.90
2017,01,09,03,40,1.90
2017,01,09,03,41,2.00
2017,01,09,03,42,2.10
2017,01,09,03,43,2.20
2017,01,09,03,44,2.30
2017,01,09,03,45,2.40
2017,01,09,03,46,2.50
2017,01,09,03,47,2.60
2017,01,09,03,48,2.70
2017,01,09,03,49,2.80
2017,01,09,03,50,2.90
2017,01,09,03,51,3.00
2017,01,09,03,52,3.00
2017,01,09,03,53,3.10
2017,01,09,03,54,3.10
2017,01,09,03,55,3.10
2017,01,09,03,56,3.10
2017,01,09,03,57,3.10
2017,01,09,03,58,3.10
2017,01,09,03,59,3.20
2017,01,09,04,00,3.20
2017,01,09,04,01,3.20
2017,01,09,04,02,3.20
2017,01,09,04,03,3.20
2017,01,09,04,04,3.20
2017,01,09,04,05,3.20
2017,01,09,04,06,3.20
2017,01,09,04,07,3.20
2017,01,09,04,08,3.20
2017,01,09,04,09,3.20
2017,01,09,04,10,3.30
2017,01,09,04,11,3.30
2017,01,09,04,12,3.40
2017,01,09,04,13,3.50
2017,01,09,04,14,3.50
2017,01,09,04,15,3.60
2017,01,09,04,16,3.60
2017,01,09,04,17,3.70
2017,01,09,04,18,3.80
2017,01,09,04,19,3.80
2017,01,09,04,20,3.80
2017,01,09,04,21,3.80
2017,01,09,04,22,3.80
2017,01,09,04,23,3.80
2017,01,09,04,24,3.80
2017,01,09,04,25,3.80
2017,01,09,04,26,3.80
2017,01,09,04,27,3.80
2017,01,09,04,28,3.80
2017,01,09,04,29,3.70
2017,01,09,04,30,3.70
2017,01,09,04,31,3.70
2017,01,09,04,32,3.70
2017,01,09,04,33,3.60
2017,01,09,04,34,3.60
2017,01,09,04,35,3.60
2017,01,09,04,36,3.50
2017,01,09,04,37,3.50
2017,01,09,04,38,3.40
2017,01,09,04,39,3.30
2017,01,09,04,40,3.30
2017,01,09,04,41,3.20
2017,01,09,04,42,3.20
2017,01,09,04,43,3.10
2017,01,09,04,44,3.10
2017,01,09,04,45,3.20
2017,01,09,04,46,3.30
2017,01,09,04,47,3.40
2017,01,09,04,48,3.50
2017,01,09,04,49,3.60
2017,01,09,04,50,3.70
2017,01,09,04,51,3.80
2017,01,09,04,52,3.90
2017,01,09,04,53,4.00
2017,01,09,04,54,4.10
2017,01,09,04,55,4.20
2017,01,09,04,56,4.20
2017,01,09,04,57,4.20
2017,01,09,04,58,4.20
2017,01,09,04,59,4.20
2017,01,09,05,00,4.20
2017,01,09,05,01,4.20
2017,01,09,05,02,4.20
2017,01,09,05,03,4.20
2017,01,09,05,04,4.20
2017,01,09,05,05,4.20
2017,01,09,05,06,4.20
2017,01,09,05,07,4.20
2017,01,09,05,08,4.20
2017,01,09,05,09,4.20
2017,01,09,05,10,4.10
2017,01,09,05,11,4.10
2017,01,09,05,12,4.10
2017,01,09,05,13,4.10
2017,01,09,05,14,4.10
2017,01,09,05,15,4.10
2017,01,09,05,16,4.10
2017,01,09,05,17,4.10
2017,01,09,05,18,4.10
2017,01,09,05,19,4.10
2017,01,09,05,20,4.10
2017,01,09,05,21,4.00
2017,01,09,05,22,4.00
2017,01,09,05,23,4.00
2017,01,09,05,24,3.90
2017,01,09,05,25,3.90
2017,01,09,05,26,3.90
2017,01,09,05,27,3.90
2017,01,09,05,28,3.90
2017,01,09,05,29,3.80
2017,01,09,05,30,3.70
2017,01,09,05,31,3.60
2017,01,09,05,32,3.50
2017,01,09,05,33,3.40
2017,01,09,05,34,3.50
2017,01,09,05,35,3.50
2017,01,09,05,36,3.50
2017,01,09,05,37,3.40
2017,01,09,05,38,3.40
2017,01,09,05,39,3.30
2017,01,09,05,40,3.20
2017,01,09,05,41,3.10
2017,01,09,05,42,3.10
2017,01,09,05,43,3.00
2017,01,09,05,44,3.00
2017,01,09,05,45,3.00
2017,01,09,05,46,3.00
2017,01,09,05,47,2.90
2017,01,09,05,48,2.90
2017,01,09,05,49,2.90
2017,01,09,05,50,2.80
2017,01,09,05,51,2.80
2017,01,09,05,52,2.80
2017,01,09,05,53,2.80
2017,01,09,05,54,2.80
2017,01,09,05,55,2.80
2017,01,09,05,56,2.80
2017,01,09,05,57,2.80
2017,01,09,05,58,2.90
2017,01,09,05,59,2.90
2017,01,09,06,00,3.00
2017,01,09,06,01,3.00
2017,01,09,06,02,3.10
2017,01,09,06,03,3.10
2017,01,09,06,04,3.20
2017,01,09,06,05,3.30
2017,01,09,06,06,3.40
2017,01,09,06,07,3.50
2017,01,09,06,08,3.50
2017,01,09,06,09,3.50
2017,01,09,06,10,3.50
2017,01,09,06,11,3.50
2017,01,09,06,12,3.50
2017,01,09,06,13,3.50
2017,01,09,06,14,3.40
2017,01,09,06,15,3.40
2017,01,09,06,16,3.40
2017,01,09,06,17,3.30
2017,01,09,06,18,3.30
2017,01,09,06,19,3.20
2017,01,09,06,20,3.20
2017,01,09,06,21,3.10
2017,01,09,06,22,3.00
2017,01,09,06,23,3.00
2017,01,09,06,24,2.90
2017,01,09,06,25,2.90
2017,01,09,06,26,2.90
2017,01,09,06,27,2.80
2017,01,09,06,28,2.80
2017,01,09,06,29,2.80
2017,01,09,06,30,2.80
2017,01,09,06,31,2.80
2017,01,09,06,32,2.80
2017,01,09,06,33,2.80
2017,01,09,06,34,2.80
2017,01,09,06,35,2.80
2017,01,09,06,36,2.80
2017,01,09,06,37,2.90
2017,01,09,06,38,2.90
2017,01,09,06,39,2.90
2017,01,09,06,40,2.90
2017,01,09,06,41,2.90
2017,01,09,06,42,2.90
2017,01,09,06,43,2.90
2017,01,09,06,44,2.90
2017,01,09,06,45,2.90
2017,01,09,06,46,2.90
2017,01,09,06,47,2.90
2017,01,09,06,48,3.00
2017,01,09,06,49,3.00
2017,01,09,06,50,3.10
2017,01,09,06,51,3.10
2017,01,09,06,52,3.10
2017,01,09,06,53,3.20
2017,01,09,06,54,3.20
2017,01,09,06,55,3.20
2017,01,09,06,56,3.30
2017,01,09,06,57,3.30
2017,01,09,06,58,3.30
2017,01,09,06,59,3.30
2017,01,09,07,00,3.30
2017,01,09,07,01,3.20
2017,01,09,07,02,3.10
2017,01,09,07,03,3.10
2017,01,09,07,04,3.00
2017,01,09,07,05,3.00
2017,01,09,07,06,2.90
2017,01,09,07,07,2.80
2017,01,09,07,08,2.80
2017,01,09,07,09,2.70
2017,01,09,07,10,2.70
2017,01,09,07,11,2.60
2017,01,09,07,12,2.60
2017,01,09,07,13,2.50
2017,01,09,07,14,2.50
2017,01,09,07,15,2.40
2017,01,09,07,16,2.40
2017,01,09,07,17,2.30
2017,01,09,07,18,2.30
2017,01,09,07,19,2.20
2017,01,09,07,20,2.20
2017,01,09,07,21,2.10
2017,01,09,07,22,2.10
2017,01,09,07,23,2.00
2017,01,09,07,24,1.90
2017,01,09,07,25,1.90
2017,01,09,07,26,1.80
2017,01,09,07,27,1.80
2017,01,09,07,28,1.70
2017,01,09,07,29,1.70
2017,01,09,07,30,1.60
2017,01,09,07,31,1.60
2017,01,09,07,32,1.60
2017,01,09,07,33,1.60
2017,01,09,07,34,1.50
2017,01,09,07,35,1.50
2017,01,09,07,36,1.50
2017,01,09,07,37,1.50
2017,01,09,07,38,1.40
2017,01,09,07,39,1.40
2017,01,09,07,40,1.40
2017,01,09,07,41,1.40
2017,01,09,07,42,1.40
2017,01,09,07,43,1.40
2017,01,09,07,44,1.40
2017,01,09,07,45,1.40
2017,01,09,07,46,1.40
2017,01,09,07,47,1.40
2017,01,09,07,48,1.40
2017,01,09,07,49,1.50
2017,01,09,07,50,1.50
2017,01,09,07,51,1.50
2017,01,09,07,52,1.50
2017,01,09,07,53,1.50
2017,01,09,07,54,1.50
2017,01,09,07,55,1.40
2017,01,09,07,56,1.30
2017,01,09,07,57,1.30
2017,01,09,07,58,1.30
2017,01,09,07,59,1.30
2017,01,09,08,00,1.30
2017,01,09,08,01,1.30
2017,01,09,08,02,1.30
2017,01,09,08,03,1.30
2017,01,09,08,04,1.30
2017,01,09,08,05,1.30
2017,01,09,08,06,1.30
2017,01,09,08,07,1.30
2017,01,09,08,08,1.30
2017,01,09,08,09,1.30
2017,01,09,08,10,1.30
2017,01,09,08,11,1.30
2017,01,09,08,12,1.30
2017,01,09,08,13,1.30
2017,01,09,08,14,1.30
2017,01,09,08,15,1.30
2017,01,09,08,16,1.30
2017,01,09,08,17,1.30
2017,01,09,08,18,1.30
2017,01,09,08,19,1.30
2017,01,09,08,20,1.30
2017,01,09,08,21,1.30
2017,01,09,08,22,1.30
2017,01,09,08,23,1.30
2017,01,09,08,24,1.30
2017,01,09,08,25,1.20
2017,01,09,08,26,1.20
2017,01,09,08,27,1.20
2017,01,09,08,28,1.20
2017,01,09,08,29,1.20
2017,01,09,08,30,1.20
2017,01,09,08,31,1.20
2017,01,09,08,32,1.20
2017,01,09,08,33,1.30
2017,01,09,08,34,1.30
2017,01,09,08,35,1.30
2017,01,09,08,36,1.30
2017,01,09,08,37,1.30
2017,01,09,08,38,1.30
2017,01,09,08,39,1.30
2017,01,09,08,40,1.30
2017,01,09,08,41,1.30
2017,01,09,08,42,1.30
2017,01,09,08,43,1.30
2017,01,09,08,44,1.30
2017,01,09,08,45,1.30
2017,01,09,08,46,1.30
2017,01,09,08,47,1.30
2017,01,09,08,48,1.30
2017,01,09,08,49,1.30
2017,01,09,08,50,1.30
2017,01,09,08,51,1.30
2017,01,09,08,52,1.30
2017,01,09,08,53,1.30
2017,01,09,08,54,1.30
2017,01,09,08,55,1.30
2017,01,09,08,56,1.20
2017,01,09,08,57,1.20
2017,01,09,08,58,1.20
2017,01,09,08,59,1.20
2017,01,09,09,00,1.20
2017,01,09,09,01,1.10
2017,01,09,09,02,1.10
2017,01,09,09,03,1.10
2017,01,09,09,04,1.10
2017,01,09,09,05,1.10
2017,01,09,09,06,1.10
2017,01,09,09,07,1.20
2017,01,09,09,08,1.20
2017,01,09,09,09,1.20
2017,01,09,09,10,1.20
2017,01,09,09,11,1.20
2017,01,09,09,12,1.20
2017,01,09,09,13,1.20
2017,01,09,09,14,1.20
2017,01,09,09,15,1.10
2017,01,09,09,16,1.20
2017,01,09,09,17,1.10
2017,01,09,09,18,1.10
2017,01,09,09,19,1.10
2017,01,09,09,20,1.10
2017,01,09,09,21,1.10
2017,01,09,09,22,1.10
2017,01,09,09,23,1.20
2017,01,09,09,24,1.20
2017,01,09,09,25,1.20
2017,01,09,09,26,1.30
2017,01,09,09,27,1.30
2017,01,09,09,28,1.30
2017,01,09,09,29,1.30
2017,01,09,09,30,1.40
2017,01,09,09,31,1.50
2017,01,09,09,32,1.60
2017,01,09,09,33,1.60
2017,01,09,09,34,1.70
2017,01,09,09,35,1.70
2017,01,09,09,36,1.70
2017,01,09,09,37,1.80
2017,01,09,09,38,1.80
2017,01,09,09,39,1.90
2017,01,09,09,40,2.00
2017,01,09,09,41,2.00
2017,01,09,09,42,2.10
2017,01,09,09,43,2.20
2017,01,09,09,44,2.20
2017,01,09,09,45,2.20
2017,01,09,09,46,2.30
2017,01,09,09,47,2.30
2017,01,09,09,48,2.30
2017,01,09,09,49,2.40
2017,01,09,09,50,2.40
2017,01,09,09,51,2.50
2017,01,09,09,52,2.50
2017,01,09,09,53,2.60
2017,01,09,09,54,2.60
2017,01,09,09,55,2.70
2017,01,09,09,56,2.70
2017,01,09,09,57,2.80
2017,01,09,09,58,2.80
2017,01,09,09,59,2.80
2017,01,09,10,00,2.90
2017,01,09,10,01,2.90
2017,01,09,10,02,3.00
2017,01,09,10,03,3.00
2017,01,09,10,04,3.00
2017,01,09,10,05,3.10
2017,01,09,10,06,3.10
2017,01,09,10,07,3.10
2017,01,09,10,08,3.10
2017,01,09,10,09,3.10
2017,01,09,10,10,3.10
2017,01,09,10,11,3.00
2017,01,09,10,12,3.00
2017,01,09,10,13,3.00
2017,01,09,10,14,3.00
2017,01,09,10,15,3.00
2017,01,09,10,16,2.90
2017,01,09,10,17,2.90
2017,01,09,10,18,2.80
2017,01,09,10,19,2.80
2017,01,09,10,20,2.80
2017,01,09,10,21,2.70
2017,01,09,10,22,2.70
2017,01,09,10,23,2.70
2017,01,09,10,24,2.60
2017,01,09,10,25,2.60
2017,01,09,10,26,2.60
2017,01,09,10,27,2.60
2017,01,09,10,28,2.50
2017,01,09,10,29,2.50
2017,01,09,10,30,2.40
2017,01,09,10,31,2.40
2017,01,09,10,32,2.40
2017,01,09,10,33,2.40
2017,01,09,10,34,2.40
2017,01,09,10,35,2.40
2017,01,09,10,36,2.40
2017,01,09,10,37,2.40
2017,01,09,10,38,2.40
2017,01,09,10,39,2.40
2017,01,09,10,40,2.40
2017,01,09,10,41,2.40
2017,01,09,10,42,2.40
2017,01,09,10,43,2.40
2017,01,09,10,44,2.40
2017,01,09,10,45,2.40
2017,01,09,10,46,2.50
2017,01,09,10,47,2.50
2017,01,09,10,48,2.50
2017,01,09,10,49,2.60
2017,01,09,10,50,2.60
2017,01,09,10,51,2.60
2017,01,09,10,52,2.60
2017,01,09,10,53,2.60
2017,01,09,10,54,2.60
2017,01,09,10,55,2.60
2017,01,09,10,56,2.60
2017,01,09,10,57,2.70
2017,01,09,10,58,2.70
2017,01,09,10,59,2.70
2017,01,09,11,00,2.70
2017,01,09,11,01,2.70
2017,01,09,11,02,2.80
2017,01,09,11,03,2.80
2017,01,09,11,04,2.80
2017,01,09,11,05,2.90
2017,01,09,11,06,2.90
2017,01,09,11,07,2.90
2017,01,09,11,08,3.00
2017,01,09,11,09,3.00
2017,01,09,11,10,3.00
2017,01,09,11,11,3.10
2017,01,09,11,12,3.10
2017,01,09,11,13,3.10
2017,01,09,11,14,3.10
2017,01,09,11,15,3.20
2017,01,09,11,16,3.20
2017,01,09,11,17,3.20
2017,01,09,11,18,3.30
2017,01,09,11,19,3.30
2017,01,09,11,20,3.40
2017,01,09,11,21,3.40
2017,01,09,11,22,3.50
2017,01,09,11,23,3.60
2017,01,09,11,24,3.60
2017,01,09,11,25,3.70
2017,01,09,11,26,3.70
2017,01,09,11,27,3.70
2017,01,09,11,28,3.70
2017,01,09,11,29,3.70
2017,01,09,11,30,3.80
2017,01,09,11,31,3.80
2017,01,09,11,32,3.80
2017,01,09,11,33,3.80
2017,01,09,11,34,3.80
2017,01,09,11,35,3.70
2017,01,09,11,36,3.70
2017,01,09,11,37,3.70
2017,01,09,11,38,3.70
2017,01,09,11,39,3.70
2017,01,09,11,40,3.70
2017,01,09,11,41,3.70
2017,01,09,11,42,3.70
2017,01,09,11,43,3.70
2017,01,09,11,44,3.70
2017,01,09,11,45,3.60
2017,01,09,11,46,3.60
2017,01,09,11,47,3.60
2017,01,09,11,48,3.60
2017,01,09,11,49,3.60
2017,01,09,11,50,3.60
2017,01,09,11,51,3.60
2017,01,09,11,52,3.60
2017,01,09,11,53,3.50
2017,01,09,11,54,3.50
2017,01,09,11,55,3.40
2017,01,09,11,56,3.40
2017,01,09,11,57,3.30
2017,01,09,11,58,3.30
2017,01,09,11,59,3.30
2017,01,09,12,00,3.30
2017,01,09,12,01,3.20
2017,01,09,12,02,3.20
2017,01,09,12,03,3.20
2017,01,09,12,04,3.10
2017,01,09,12,05,3.10
2017,01,09,12,06,3.00
2017,01,09,12,07,3.00
2017,01,09,12,08,3.00
2017,01,09,12,09,3.00
2017,01,09,12,10,3.00
2017,01,09,12,11,3.00
2017,01,09,12,12,3.00
2017,01,09,12,13,3.00
2017,01,09,12,14,3.00
2017,01,09,12,15,3.00
2017,01,09,12,16,3.10
2017,01,09,12,17,3.10
2017,01,09,12,18,3.10
2017,01,09,12,19,3.10
2017,01,09,12,20,3.20
2017,01,09,12,21,3.20
2017,01,09,12,22,3.20
2017,01,09,12,23,3.20
2017,01,09,12,24,3.20
2017,01,09,12,25,3.20
2017,01,09,12,26,3.20
2017,01,09,12,27,3.20
2017,01,09,12,28,3.20
2017,01,09,12,29,3.20
2017,01,09,12,30,3.20
2017,01,09,12,31,3.20
2017,01,09,12,32,3.20
2017,01,09,12,33,3.20
2017,01,09,12,34,3.20
2017,01,09,12,35,3.20
2017,01,09,12,36,3.20
2017,01,09,12,37,3.20
2017,01,09,12,38,3.20
2017,01,09,12,39,3.20
2017,01,09,12,40,3.20
2017,01,09,12,41,3.20
2017,01,09,12,42,3.20
2017,01,09,12,43,3.20
2017,01,09,12,44,3.20
2017,01,09,12,45,3.20
2017,01,09,12,46,3.20
2017,01,09,12,47,3.20
2017,01,09,12,48,3.20
2017,01,09,12,49,3.20
2017,01,09,12,50,3.20
2017,01,09,12,51,3.20
2017,01,09,12,52,3.20
2017,01,09,12,53,3.30
2017,01,09,12,54,3.30
2017,01,09,12,55,3.30
2017,01,09,12,56,3.30
2017,01,09,12,57,3.30
2017,01,09,12,58,3.30
2017,01,09,12,59,3.30
2017,01,09,13,00,3.30
2017,01,09,13,01,3.30
2017,01,09,13,02,3.30
2017,01,09,13,03,3.30
2017,01,09,13,04,3.30
2017,01,09,13,05,3.30
2017,01,09,13,06,3.30
2017,01,09,13,07,3.30
2017,01,09,13,08,3.30
2017,01,09,13,09,3.30
2017,01,09,13,10,3.40
2017,01,09,13,11,3.40
2017,01,09,13,12,3.40
2017,01,09,13,13,3.40
2017,01,09,13,14,3.40
2017,01,09,13,15,3.40
2017,01,09,13,16,3.40
2017,01,09,13,17,3.40
2017,01,09,13,18,3.50
2017,01,09,13,19,3.50
2017,01,09,13,20,3.50
2017,01,09,13,21,3.50
2017,01,09,13,22,3.50
2017,01,09,13,23,3.50
2017,01,09,13,24,3.50
2017,01,09,13,25,3.50
2017,01,09,13,26,3.50
2017,01,09,13,27,3.50
2017,01,09,13,28,3.50
2017,01,09,13,29,3.50
2017,01,09,13,30,3.50
2017,01,09,13,31,3.50
2017,01,09,13,32,3.50
2017,01,09,13,33,3.50
2017,01,09,13,34,3.50
2017,01,09,13,35,3.50
2017,01,09,13,36,3.40
2017,01,09,13,37,3.40
2017,01,09,13,38,3.40
2017,01,09,13,39,3.40
2017,01,09,13,40,3.40
2017,01,09,13,41,3.40
2017,01,09,13,42,3.40
2017,01,09,13,43,3.40
2017,01,09,13,44,3.40
2017,01,09,13,45,3.40
2017,01,09,13,46,3.40
2017,01,09,13,47,3.40
2017,01,09,13,48,3.40
2017,01,09,13,49,3.40
2017,01,09,13,50,3.40
2017,01,09,13,51,3.40
2017,01,09,13,52,3.40
2017,01,09,13,53,3.40
2017,01,09,13,54,3.40
2017,01,09,13,55,3.40
2017,01,09,13,56,3.40
2017,01,09,13,57,3.40
2017,01,09,13,58,3.40
2017,01,09,13,59,3.40
2017,01,09,14,00,3.40
2017,01,09,14,01,3.40
2017,01,09,14,02,3.40
2017,01,09,14,03,3.40
2017,01,09,14,04,3.50
2017,01,09,14,05,3.50
2017,01,09,14,06,3.50
2017,01,09,14,07,3.50
2017,01,09,14,08,3.50
2017,01,09,14,09,3.50
2017,01,09,14,10,3.50
2017,01,09,14,11,3.50
2017,01,09,14,12,3.50
2017,01,09,14,13,3.50
2017,01,09,14,14,3.40
2017,01,09,14,15,3.40
2017,01,09,14,16,3.30
2017,01,09,14,17,3.30
2017,01,09,14,18,3.30
2017,01,09,14,19,3.30
2017,01,09,14,20,3.30
2017,01,09,14,21,3.20
2017,01,09,14,22,3.20
2017,01,09,14,23,3.20
2017,01,09,14,24,3.20
2017,01,09,14,25,3.20
2017,01,09,14,26,3.20
2017,01,09,14,27,3.20
2017,01,09,14,28,3.20
2017,01,09,14,29,3.10
2017,01,09,14,30,3.10
2017,01,09,14,31,3.10
2017,01,09,14,32,3.10
2017,01,09,14,33,3.10
2017,01,09,14,34,3.10
2017,01,09,14,35,3.10
2017,01,09,14,36,3.10
2017,01,09,14,37,3.10
2017,01,09,14,38,3.10
2017,01,09,14,39,3.10
2017,01,09,14,40,3.10
2017,01,09,14,41,3.10
2017,01,09,14,42,3.10
2017,01,09,14,43,3.10
2017,01,09,14,44,3.10
2017,01,09,14,45,3.10
2017,01,09,14,46,3.00
2017,01,09,14,47,3.10
2017,01,09,14,48,3.00
2017,01,09,14,49,3.00
2017,01,09,14,50,3.00
2017,01,09,14,51,3.00
2017,01,09,14,52,3.00
2017,01,09,14,53,3.00
2017,01,09,14,54,3.00
2017,01,09,14,55,3.00
2017,01,09,14,56,3.00
2017,01,09,14,57,3.00
2017,01,09,14,58,3.00
2017,01,09,14,59,3.00
2017,01,09,15,00,3.00
2017,01,09,15,01,3.00
2017,01,09,15,02,3.00
2017,01,09,15,03,2.90
2017,01,09,15,04,2.90
2017,01,09,15,05,2.90
2017,01,09,15,06,2.90
2017,01,09,15,07,2.90
2017,01,09,15,08,2.90
2017,01,09,15,09,2.90
2017,01,09,15,10,2.90
2017,01,09,15,11,2.90
2017,01,09,15,12,2.90
2017,01,09,15,13,2.90
2017,01,09,15,14,2.90
2017,01,09,15,15,2.80
2017,01,09,15,16,2.80
2017,01,09,15,17,2.80
2017,01,09,15,18,2.80
2017,01,09,15,19,2.90
2017,01,09,15,20,2.90
2017,01,09,15,21,2.90
2017,01,09,15,22,2.90
2017,01,09,15,23,2.90
2017,01,09,15,24,2.90
2017,01,09,15,25,2.80
2017,01,09,15,26,2.80
2017,01,09,15,27,2.80
2017,01,09,15,28,2.80
2017,01,09,15,29,2.80
2017,01,09,15,30,2.80
2017,01,09,15,31,2.80
2017,01,09,15,32,2.80
2017,01,09,15,33,2.90
2017,01,09,15,34,2.90
2017,01,09,15,35,2.90
2017,01,09,15,36,2.90
2017,01,09,15,37,2.90
2017,01,09,15,38,2.90
2017,01,09,15,39,2.90
2017,01,09,15,40,2.90
2017,01,09,15,41,3.00
2017,01,09,15,42,3.00
2017,01,09,15,43,3.00
2017,01,09,15,44,3.00
2017,01,09,15,45,3.00
2017,01,09,15,46,3.00
2017,01,09,15,47,3.00
2017,01,09,15,48,3.00
2017,01,09,15,49,3.00
2017,01,09,15,50,2.90
2017,01,09,15,51,2.90
2017,01,09,15,52,2.90
2017,01,09,15,53,2.90
2017,01,09,15,54,2.90
2017,01,09,15,55,2.90
2017,01,09,15,56,2.90
2017,01,09,15,57,2.90
2017,01,09,15,58,2.90
2017,01,09,15,59,2.90
2017,01,09,16,00,2.90
2017,01,09,16,01,2.90
2017,01,09,16,02,2.90
2017,01,09,16,03,2.90
2017,01,09,16,04,2.90
2017,01,09,16,05,2.80
2017,01,09,16,06,2.80
2017,01,09,16,07,2.80
2017,01,09,16,08,2.80
2017,01,09,16,09,2.80
2017,01,09,16,10,2.80
2017,01,09,16,11,2.70
2017,01,09,16,12,2.70
2017,01,09,16,13,2.70
2017,01,09,16,14,2.70
2017,01,09,16,15,2.70
2017,01,09,16,16,2.70
2017,01,09,16,17,2.70
2017,01,09,16,18,2.70
2017,01,09,16,19,2.70
2017,01,09,16,20,2.70
2017,01,09,16,21,2.60
2017,01,09,16,22,2.60
2017,01,09,16,23,2.60
2017,01,09,16,24,2.60
2017,01,09,16,25,2.60
2017,01,09,16,26,2.60
2017,01,09,16,27,2.60
2017,01,09,16,28,2.60
2017,01,09,16,29,2.60
2017,01,09,16,30,2.60
2017,01,09,16,31,2.60
2017,01,09,16,32,2.50
2017,01,09,16,33,2.50
2017,01,09,16,34,2.50
2017,01,09,16,35,2.50
2017,01,09,16,36,2.50
2017,01,09,16,37,2.40
2017,01,09,16,38,2.40
2017,01,09,16,39,2.40
2017,01,09,16,40,2.40
2017,01,09,16,41,2.40
2017,01,09,16,42,2.40
2017,01,09,16,43,2.40
2017,01,09,16,44,2.30
2017,01,09,16,45,2.30
2017,01,09,16,46,2.30
2017,01,09,16,47,2.30
2017,01,09,16,48,2.30
2017,01,09,16,49,2.30
2017,01,09,16,50,2.30
2017,01,09,16,51,2.20
2017,01,09,16,52,2.20
2017,01,09,16,53,2.20
2017,01,09,16,54,2.20
2017,01,09,16,55,2.10
2017,01,09,16,56,2.10
2017,01,09,16,57,2.10
2017,01,09,16,58,2.10
2017,01,09,16,59,2.10
2017,01,09,17,00,2.00
2017,01,09,17,01,2.00
2017,01,09,17,02,2.00
2017,01,09,17,03,2.00
2017,01,09,17,04,1.90
2017,01,09,17,05,1.90
2017,01,09,17,06,1.90
2017,01,09,17,07,1.90
2017,01,09,17,08,1.90
2017,01,09,17,09,1.90
2017,01,09,17,10,1.90
2017,01,09,17,11,1.90
2017,01,09,17,12,1.90
2017,01,09,17,13,1.90
2017,01,09,17,14,1.80
2017,01,09,17,15,1.90
2017,01,09,17,16,1.90
2017,01,09,17,17,1.90
2017,01,09,17,18,1.90
2017,01,09,17,19,1.90
2017,01,09,17,20,1.90
2017,01,09,17,21,1.80
2017,01,09,17,22,1.80
2017,01,09,17,23,1.80
2017,01,09,17,24,1.80
2017,01,09,17,25,1.80
2017,01,09,17,26,1.80
2017,01,09,17,27,1.80
2017,01,09,17,28,1.80
2017,01,09,17,29,1.80
2017,01,09,17,30,1.80
2017,01,09,17,31,1.70
2017,01,09,17,32,1.70
2017,01,09,17,33,1.70
2017,01,09,17,34,1.70
2017,01,09,17,35,1.70
2017,01,09,17,36,1.70
2017,01,09,17,37,1.70
2017,01,09,17,38,1.70
2017,01,09,17,39,1.70
2017,01,09,17,40,1.70
2017,01,09,17,41,1.70
2017,01,09,17,42,1.70
2017,01,09,17,43,1.70
2017,01,09,17,44,1.70
2017,01,09,17,45,1.70
2017,01,09,17,46,1.70
2017,01,09,17,47,1.60
2017,01,09,17,48,1.60
2017,01,09,17,49,1.60
2017,01,09,17,50,1.60
2017,01,09,17,51,1.50
2017,01,09,17,52,1.50
2017,01,09,17,53,1.50
2017,01,09,17,54,1.50
2017,01,09,17,55,1.40
2017,01,09,17,56,1.40
2017,01,09,17,57,1.40
2017,01,09,17,58,1.40
2017,01,09,17,59,1.40
2017,01,09,18,00,1.40
2017,01,09,18,01,1.40
2017,01,09,18,02,1.40
2017,01,09,18,03,1.40
2017,01,09,18,04,1.40
2017,01,09,18,05,1.40
2017,01,09,18,06,1.40